DAL255 KCLE-KMEM

Flight info

Callsign DAL255
Flight time 1h 36m
Altitude 36000
Route ZAAPA6 SINKR PXV BLUZZ5
Aircraft A321/M-SDE3FGHIRWY/LB1

Departure

Time 2026-05-05 01:19
Airport Cleveland Hopkins International Airport (KCLE)

Arrival

Time 2026-05-05 02:55
Airport Memphis International Airport (KMEM)
Time Latitude Longitude Altitude Speed Heading
2026-05-05 00:32 41.40915 -81.84060 783 ft 0 kts 141°
2026-05-05 00:36 41.40916 -81.84060 783 ft 0 kts 141°
2026-05-05 01:08 41.40919 -81.84063 782 ft 3 kts 140°
2026-05-05 01:09 41.40937 -81.84088 782 ft 4 kts 121°
2026-05-05 01:09 41.40948 -81.84120 782 ft 4 kts 102°
2026-05-05 01:09 41.40951 -81.84156 782 ft 4 kts 86°
2026-05-05 01:09 41.40947 -81.84191 782 ft 4 kts 74°
2026-05-05 01:10 41.40938 -81.84225 782 ft 4 kts 63°
2026-05-05 01:10 41.40924 -81.84255 783 ft 4 kts 49°
2026-05-05 01:10 41.40920 -81.84261 783 ft 1 kts 45°
2026-05-05 01:14 41.40942 -81.84259 783 ft 6 kts 346°
2026-05-05 01:14 41.41002 -81.84308 783 ft 14 kts 331°
2026-05-05 01:14 41.41099 -81.84376 783 ft 12 kts 354°
2026-05-05 01:15 41.41176 -81.84381 783 ft 10 kts
2026-05-05 01:15 41.41232 -81.84337 783 ft 9 kts 43°
2026-05-05 01:15 41.41270 -81.84282 783 ft 7 kts 49°
2026-05-05 01:15 41.41302 -81.84230 783 ft 9 kts 50°
2026-05-05 01:16 41.41368 -81.84125 782 ft 20 kts 50°
2026-05-05 01:16 41.41406 -81.84094 782 ft 0 kts
2026-05-05 01:16 41.41439 -81.84115 782 ft 9 kts 314°
2026-05-05 01:16 41.41451 -81.84132 782 ft 0 kts 317°
2026-05-05 01:17 41.41480 -81.84167 782 ft 13 kts 313°
2026-05-05 01:17 41.41493 -81.84269 781 ft 0 kts 242°
2026-05-05 01:18 41.41492 -81.84271 781 ft 0 kts 237°
2026-05-05 01:18 41.41458 -81.84325 781 ft 30 kts 230°
2026-05-05 01:18 41.41164 -81.84788 784 ft 97 kts 230°
2026-05-05 01:18 41.40609 -81.85665 783 ft 148 kts 230°
2026-05-05 01:19 41.39886 -81.86821 1038 ft 166 kts 230°
2026-05-05 01:19 41.39222 -81.88056 1670 ft 164 kts 237°
2026-05-05 01:19 41.38682 -81.89401 2258 ft 165 kts 242°
2026-05-05 01:19 41.38175 -81.90799 2724 ft 173 kts 242°
2026-05-05 01:20 41.37639 -81.92324 2858 ft 192 kts 242°
2026-05-05 01:20 41.37053 -81.94031 2990 ft 214 kts 244°
2026-05-05 01:20 41.36410 -81.95941 3246 ft 235 kts 244°
2026-05-05 01:20 41.35740 -81.97973 3931 ft 242 kts 244°
2026-05-05 01:21 41.35067 -82.00045 4763 ft 245 kts 245°
2026-05-05 01:21 41.34396 -82.02125 5587 ft 245 kts 246°
2026-05-05 01:21 41.33725 -82.04216 5917 ft 244 kts 246°
2026-05-05 01:21 41.33060 -82.06282 6007 ft 242 kts 246°
2026-05-05 01:22 41.32397 -82.08344 6022 ft 241 kts 246°
2026-05-05 01:22 41.31738 -82.10392 6023 ft 241 kts 246°
2026-05-05 01:22 41.31078 -82.12440 6022 ft 241 kts 246°
2026-05-05 01:22 41.30417 -82.14487 6019 ft 241 kts 246°
2026-05-05 01:23 41.29756 -82.16534 6021 ft 241 kts 246°
2026-05-05 01:23 41.29093 -82.18582 6026 ft 241 kts 246°
2026-05-05 01:23 41.28435 -82.20619 6023 ft 239 kts 246°
2026-05-05 01:23 41.27756 -82.22647 6024 ft 240 kts 242°
2026-05-05 01:24 41.26950 -82.24617 6530 ft 244 kts 242°
2026-05-05 01:24 41.26141 -82.26609 7348 ft 245 kts 242°
2026-05-05 01:24 41.25326 -82.28617 8097 ft 248 kts 242°
2026-05-05 01:24 41.24499 -82.30648 8817 ft 252 kts 242°
2026-05-05 01:25 41.23659 -82.32705 9512 ft 255 kts 242°
2026-05-05 01:25 41.22808 -82.34789 10193 ft 259 kts 243°
2026-05-05 01:25 41.21917 -82.36976 10432 ft 280 kts 243°
2026-05-05 01:25 41.20955 -82.39340 10595 ft 301 kts 243°
2026-05-05 01:26 41.19941 -82.41820 11100 ft 309 kts 243°
2026-05-05 01:26 41.18934 -82.44364 11746 ft 312 kts 248°
2026-05-05 01:26 41.18189 -82.47079 12419 ft 314 kts 252°
2026-05-05 01:26 41.17475 -82.49832 13068 ft 318 kts 252°
2026-05-05 01:27 41.16753 -82.52610 13691 ft 321 kts 252°
2026-05-05 01:27 41.16017 -82.55442 13975 ft 324 kts 252°
2026-05-05 01:27 41.15277 -82.58274 14027 ft 325 kts 252°
2026-05-05 01:27 41.14536 -82.61101 14032 ft 324 kts 252°
2026-05-05 01:28 41.13797 -82.63922 14034 ft 325 kts 252°
2026-05-05 01:28 41.13054 -82.66756 14032 ft 325 kts 252°
2026-05-05 01:28 41.12310 -82.69581 14031 ft 325 kts 252°
2026-05-05 01:28 41.11816 -82.71452 14026 ft 324 kts 252°
2026-05-05 01:29 41.11069 -82.74278 14022 ft 324 kts 252°
2026-05-05 01:29 41.10385 -82.77123 14030 ft 325 kts 258°
2026-05-05 01:29 41.09883 -82.80065 14565 ft 328 kts 258°
2026-05-05 01:29 41.09368 -82.83022 15203 ft 331 kts 258°
2026-05-05 01:30 41.08843 -82.86010 15800 ft 335 kts 258°
2026-05-05 01:30 41.08308 -82.89029 16379 ft 339 kts 258°
2026-05-05 01:30 41.07769 -82.92083 16923 ft 342 kts 257°
2026-05-05 01:30 41.07223 -82.95174 17456 ft 346 kts 258°
2026-05-05 01:31 41.06668 -82.98298 17976 ft 350 kts 257°
2026-05-05 01:31 41.06108 -83.01453 18478 ft 354 kts 258°
2026-05-05 01:31 41.05545 -83.04641 18998 ft 356 kts 258°
2026-05-05 01:31 41.04979 -83.07846 19510 ft 359 kts 258°
2026-05-05 01:32 41.04409 -83.11075 20005 ft 362 kts 258°
2026-05-05 01:32 41.03831 -83.14339 20477 ft 365 kts 258°
2026-05-05 01:32 41.03248 -83.17622 20951 ft 368 kts 257°
2026-05-05 01:32 41.02654 -83.20935 21411 ft 371 kts 257°
2026-05-05 01:33 41.02053 -83.24270 21864 ft 374 kts 257°
2026-05-05 01:33 41.01450 -83.27626 22316 ft 377 kts 257°
2026-05-05 01:33 41.00841 -83.31012 22746 ft 379 kts 257°
2026-05-05 01:33 41.00229 -83.34418 23167 ft 382 kts 257°
2026-05-05 01:34 40.99612 -83.37848 23568 ft 384 kts 257°
2026-05-05 01:34 40.98998 -83.41252 23945 ft 387 kts 257°
2026-05-05 01:34 40.98362 -83.44767 24341 ft 389 kts 257°
2026-05-05 01:34 40.97738 -83.48215 24719 ft 392 kts 257°
2026-05-05 01:35 40.97098 -83.51733 25095 ft 394 kts 257°
2026-05-05 01:35 40.96453 -83.55262 25461 ft 396 kts 257°
2026-05-05 01:35 40.95803 -83.58818 25829 ft 398 kts 257°
2026-05-05 01:35 40.95151 -83.62387 26192 ft 400 kts 257°
2026-05-05 01:36 40.94487 -83.66014 26553 ft 402 kts 257°
2026-05-05 01:36 40.93827 -83.69615 26897 ft 404 kts 257°
2026-05-05 01:36 40.93171 -83.73182 27227 ft 406 kts 257°
2026-05-05 01:36 40.92502 -83.76827 27556 ft 408 kts 257°
2026-05-05 01:37 40.91830 -83.80483 27880 ft 410 kts 257°
2026-05-05 01:37 40.91154 -83.84147 28193 ft 412 kts 257°
2026-05-05 01:37 40.90303 -83.87772 28487 ft 415 kts 248°
2026-05-05 01:37 40.88968 -83.91158 28780 ft 418 kts 238°
2026-05-05 01:38 40.87170 -83.94197 29065 ft 423 kts 229°
2026-05-05 01:38 40.84933 -83.96824 29326 ft 427 kts 221°
2026-05-05 01:38 40.82594 -83.99265 29582 ft 429 kts 221°
2026-05-05 01:38 40.80282 -84.01694 29831 ft 431 kts 221°
2026-05-05 01:39 40.77938 -84.04169 30095 ft 433 kts 221°
2026-05-05 01:39 40.75581 -84.06661 30355 ft 435 kts 221°
2026-05-05 01:39 40.73217 -84.09156 30633 ft 436 kts 221°
2026-05-05 01:39 40.70818 -84.11683 31001 ft 436 kts 221°
2026-05-05 01:40 40.68479 -84.14140 31363 ft 435 kts 221°
2026-05-05 01:40 40.66116 -84.16617 31714 ft 434 kts 221°
2026-05-05 01:40 40.63725 -84.19123 32066 ft 433 kts 221°
2026-05-05 01:40 40.61396 -84.21557 32397 ft 433 kts 221°
2026-05-05 01:41 40.59037 -84.24018 32721 ft 433 kts 221°
2026-05-05 01:41 40.56681 -84.26477 33052 ft 432 kts 221°
2026-05-05 01:41 40.54325 -84.28936 33368 ft 432 kts 221°
2026-05-05 01:41 40.51974 -84.31392 33685 ft 432 kts 221°
2026-05-05 01:42 40.49621 -84.33843 33982 ft 432 kts 221°
2026-05-05 01:42 40.47268 -84.36289 34273 ft 431 kts 221°
2026-05-05 01:42 40.44963 -84.38810 34553 ft 429 kts 227°
2026-05-05 01:42 40.42909 -84.41648 34840 ft 427 kts 230°
2026-05-05 01:43 40.40906 -84.44494 35128 ft 426 kts 230°
2026-05-05 01:43 40.38889 -84.47346 35413 ft 426 kts 230°
2026-05-05 01:43 40.36872 -84.50195 35673 ft 426 kts 230°
2026-05-05 01:43 40.34862 -84.53030 35746 ft 423 kts 230°
2026-05-05 01:44 40.30866 -84.58649 35757 ft 420 kts 230°
2026-05-05 01:44 40.26878 -84.64240 35768 ft 420 kts 230°
2026-05-05 01:45 40.22900 -84.69823 35767 ft 419 kts 230°
2026-05-05 01:45 40.18918 -84.75390 35764 ft 419 kts 230°
2026-05-05 01:46 40.14930 -84.80946 35771 ft 419 kts 230°
2026-05-05 01:46 40.10949 -84.86512 35769 ft 419 kts 230°
2026-05-05 01:47 40.06970 -84.92063 35775 ft 419 kts 230°
2026-05-05 01:47 40.02977 -84.97608 35782 ft 418 kts 230°
2026-05-05 01:48 39.98990 -85.03132 35789 ft 418 kts 230°
2026-05-05 01:48 39.95006 -85.08651 35768 ft 418 kts 230°
2026-05-05 01:49 39.91020 -85.14170 35760 ft 419 kts 230°
2026-05-05 01:49 39.87022 -85.19692 35767 ft 419 kts 230°
2026-05-05 01:50 39.83017 -85.25207 35768 ft 419 kts 229°
2026-05-05 01:50 39.79029 -85.30673 35770 ft 419 kts 229°
2026-05-05 01:51 39.75013 -85.36165 35771 ft 419 kts 229°
2026-05-05 01:51 39.71007 -85.41655 35775 ft 418 kts 229°
2026-05-05 01:52 39.67000 -85.47139 35784 ft 418 kts 229°
2026-05-05 01:52 39.62996 -85.52615 35768 ft 418 kts 229°
2026-05-05 01:53 39.58985 -85.58079 35770 ft 418 kts 229°
2026-05-05 01:53 39.54972 -85.63524 35767 ft 418 kts 229°
2026-05-05 01:54 39.50955 -85.68973 35770 ft 418 kts 229°
2026-05-05 01:54 39.46946 -85.74417 35767 ft 418 kts 229°
2026-05-05 01:55 39.42929 -85.79857 35767 ft 418 kts 229°
2026-05-05 01:55 39.38907 -85.85279 35769 ft 418 kts 229°
2026-05-05 01:56 39.34884 -85.90693 35773 ft 418 kts 229°
2026-05-05 01:56 39.30859 -85.96099 35766 ft 418 kts 229°
2026-05-05 01:57 39.26830 -86.01510 35774 ft 417 kts 229°
2026-05-05 01:57 39.22804 -86.06910 35775 ft 417 kts 229°
2026-05-05 01:58 39.18783 -86.12305 35769 ft 417 kts 230°
2026-05-05 01:58 39.14760 -86.17690 35786 ft 417 kts 229°
2026-05-05 01:59 39.10719 -86.23055 35780 ft 417 kts 229°
2026-05-05 01:59 39.06687 -86.28416 35783 ft 417 kts 230°
2026-05-05 02:00 39.02662 -86.33775 35781 ft 416 kts 229°
2026-05-05 02:00 38.98635 -86.39124 35786 ft 416 kts 230°
2026-05-05 02:01 38.94609 -86.44456 35787 ft 416 kts 229°
2026-05-05 02:01 38.90569 -86.49788 35793 ft 416 kts 230°
2026-05-05 02:02 38.86525 -86.55111 35800 ft 416 kts 230°
2026-05-05 02:02 38.82488 -86.60430 35800 ft 416 kts 230°
2026-05-05 02:03 38.78450 -86.65744 35802 ft 416 kts 230°
2026-05-05 02:03 38.74442 -86.71011 35802 ft 415 kts 230°
2026-05-05 02:04 38.70374 -86.76341 35805 ft 416 kts 230°
2026-05-05 02:04 38.66328 -86.81626 35811 ft 416 kts 230°
2026-05-05 02:05 38.62308 -86.86883 35811 ft 416 kts 230°
2026-05-05 02:05 38.58258 -86.92169 35814 ft 416 kts 230°
2026-05-05 02:06 38.54210 -86.97438 35814 ft 416 kts 230°
2026-05-05 02:06 38.50154 -87.02705 35812 ft 416 kts 230°
2026-05-05 02:07 38.46092 -87.07962 35809 ft 416 kts 230°
2026-05-05 02:07 38.42036 -87.13212 35811 ft 416 kts 230°
2026-05-05 02:08 38.37973 -87.18467 35811 ft 416 kts 230°
2026-05-05 02:08 38.33909 -87.23712 35816 ft 416 kts 230°
2026-05-05 02:09 38.29841 -87.28950 35817 ft 416 kts 230°
2026-05-05 02:09 38.25773 -87.34186 35822 ft 416 kts 230°
2026-05-05 02:10 38.21708 -87.39412 35823 ft 416 kts 230°
2026-05-05 02:10 38.17639 -87.44631 35824 ft 416 kts 230°
2026-05-05 02:11 38.14252 -87.48964 35826 ft 416 kts 230°
2026-05-05 02:11 38.10175 -87.54175 35831 ft 416 kts 230°
2026-05-05 02:12 38.04054 -87.61976 35833 ft 416 kts 230°
2026-05-05 02:13 37.99966 -87.67172 35834 ft 416 kts 231°
2026-05-05 02:13 37.95880 -87.72356 35835 ft 415 kts 231°
2026-05-05 02:14 37.91429 -87.77049 35725 ft 422 kts 216°
2026-05-05 02:14 37.88799 -87.78739 35552 ft 424 kts 212°
2026-05-05 02:14 37.86133 -87.80355 35380 ft 424 kts 212°
2026-05-05 02:14 37.83475 -87.81969 35205 ft 424 kts 212°
2026-05-05 02:15 37.80811 -87.83591 35028 ft 424 kts 212°
2026-05-05 02:15 37.78154 -87.85215 34854 ft 424 kts 212°
2026-05-05 02:15 37.75499 -87.86840 34681 ft 424 kts 212°
2026-05-05 02:15 37.72844 -87.88468 34507 ft 424 kts 212°
2026-05-05 02:16 37.70190 -87.90095 34333 ft 424 kts 212°
2026-05-05 02:16 37.67537 -87.91723 34158 ft 424 kts 212°
2026-05-05 02:16 37.64883 -87.93343 33982 ft 424 kts 212°
2026-05-05 02:16 37.62228 -87.94959 33811 ft 423 kts 212°
2026-05-05 02:17 37.59577 -87.96569 33851 ft 424 kts 212°
2026-05-05 02:17 37.54263 -87.99801 33850 ft 424 kts 212°
2026-05-05 02:18 37.48948 -88.03038 33850 ft 425 kts 212°
2026-05-05 02:18 37.43614 -88.06263 33850 ft 425 kts 212°
2026-05-05 02:19 37.38276 -88.09484 33857 ft 425 kts 212°
2026-05-05 02:19 37.32980 -88.12687 33859 ft 425 kts 212°
2026-05-05 02:20 37.27652 -88.15907 33859 ft 425 kts 212°
2026-05-05 02:20 37.22316 -88.19131 33857 ft 426 kts 212°
2026-05-05 02:21 37.16971 -88.22344 33856 ft 426 kts 212°
2026-05-05 02:21 37.11624 -88.25547 33858 ft 426 kts 212°
2026-05-05 02:22 37.06274 -88.28747 33860 ft 426 kts 212°
2026-05-05 02:22 37.00929 -88.31946 33860 ft 426 kts 212°
2026-05-05 02:23 36.95578 -88.35151 33861 ft 426 kts 212°
2026-05-05 02:23 36.90219 -88.38345 33861 ft 427 kts 212°
2026-05-05 02:24 36.84859 -88.41547 33866 ft 427 kts 212°
2026-05-05 02:24 36.79494 -88.44739 33867 ft 427 kts 212°
2026-05-05 02:25 36.74124 -88.47915 33872 ft 427 kts 212°
2026-05-05 02:25 36.71422 -88.49521 33666 ft 435 kts 212°
2026-05-05 02:25 36.68685 -88.51147 33100 ft 436 kts 212°
2026-05-05 02:25 36.65956 -88.52764 32556 ft 433 kts 212°
2026-05-05 02:26 36.63240 -88.54368 32007 ft 430 kts 212°
2026-05-05 02:26 36.60547 -88.55956 31465 ft 428 kts 211°
2026-05-05 02:26 36.57867 -88.57535 30925 ft 425 kts 211°
2026-05-05 02:26 36.55205 -88.59103 30401 ft 422 kts 211°
2026-05-05 02:27 36.52560 -88.60662 29866 ft 419 kts 211°
2026-05-05 02:27 36.49943 -88.62209 29353 ft 415 kts 211°
2026-05-05 02:27 36.47340 -88.63744 28838 ft 412 kts 211°
2026-05-05 02:27 36.44758 -88.65263 28334 ft 409 kts 211°
2026-05-05 02:28 36.42202 -88.66766 27831 ft 405 kts 210°
2026-05-05 02:28 36.39661 -88.68260 27340 ft 402 kts 210°
2026-05-05 02:28 36.37145 -88.69739 26869 ft 398 kts 210°
2026-05-05 02:28 36.34655 -88.71202 26386 ft 394 kts 210°
2026-05-05 02:29 36.32186 -88.72652 25926 ft 390 kts 210°
2026-05-05 02:29 36.29744 -88.74086 25469 ft 386 kts 210°
2026-05-05 02:29 36.27331 -88.75497 25033 ft 381 kts 210°
2026-05-05 02:29 36.24944 -88.76893 24584 ft 377 kts 210°
2026-05-05 02:30 36.22584 -88.78275 24169 ft 373 kts 209°
2026-05-05 02:30 36.20248 -88.79637 23744 ft 369 kts 209°
2026-05-05 02:30 36.17933 -88.80983 23309 ft 366 kts 209°
2026-05-05 02:30 36.15643 -88.82318 22871 ft 362 kts 209°
2026-05-05 02:31 36.13375 -88.83639 22446 ft 359 kts 209°
2026-05-05 02:31 36.11125 -88.84953 22019 ft 356 kts 209°
2026-05-05 02:31 36.08889 -88.86257 21600 ft 353 kts 209°
2026-05-05 02:31 36.06672 -88.87547 21159 ft 351 kts 209°
2026-05-05 02:32 36.04473 -88.88827 20747 ft 348 kts 209°
2026-05-05 02:32 36.02295 -88.90092 20314 ft 346 kts 209°
2026-05-05 02:32 36.00120 -88.91355 19889 ft 344 kts 209°
2026-05-05 02:32 35.97966 -88.92610 19455 ft 341 kts 209°
2026-05-05 02:33 35.95855 -88.93838 19035 ft 339 kts 209°
2026-05-05 02:33 35.93708 -88.95085 18606 ft 336 kts 209°
2026-05-05 02:33 35.91593 -88.96313 18190 ft 334 kts 209°
2026-05-05 02:33 35.89509 -88.97520 17870 ft 329 kts 209°
2026-05-05 02:34 35.87474 -88.98697 17473 ft 327 kts 209°
2026-05-05 02:34 35.85424 -88.99882 17074 ft 324 kts 209°
2026-05-05 02:34 35.83387 -89.01059 16676 ft 322 kts 208°
2026-05-05 02:34 35.81364 -89.02225 16287 ft 320 kts 208°
2026-05-05 02:35 35.79351 -89.03382 15896 ft 318 kts 208°
2026-05-05 02:35 35.77348 -89.04538 15510 ft 316 kts 208°
2026-05-05 02:35 35.75364 -89.05686 15120 ft 314 kts 208°
2026-05-05 02:35 35.73464 -89.06968 14748 ft 309 kts 217°
2026-05-05 02:36 35.71816 -89.08618 14371 ft 303 kts 227°
2026-05-05 02:36 35.70368 -89.10491 13999 ft 301 kts 229°
2026-05-05 02:36 35.68932 -89.12360 13625 ft 299 kts 229°
2026-05-05 02:36 35.67510 -89.14205 13257 ft 297 kts 229°
2026-05-05 02:37 35.66090 -89.16043 12889 ft 295 kts 229°
2026-05-05 02:37 35.64682 -89.17865 12514 ft 293 kts 228°
2026-05-05 02:37 35.63286 -89.19673 12144 ft 290 kts 228°
2026-05-05 02:37 35.61899 -89.21466 11772 ft 288 kts 228°
2026-05-05 02:38 35.60523 -89.23238 11392 ft 286 kts 228°
2026-05-05 02:38 35.59190 -89.25047 11016 ft 284 kts 230°
2026-05-05 02:38 35.57931 -89.26891 10737 ft 279 kts 231°
2026-05-05 02:38 35.56731 -89.28705 10607 ft 268 kts 232°
2026-05-05 02:39 35.55585 -89.30460 10481 ft 258 kts 232°
2026-05-05 02:39 35.54475 -89.32158 10249 ft 252 kts 232°
2026-05-05 02:39 35.53435 -89.33866 10051 ft 250 kts 239°
2026-05-05 02:39 35.52605 -89.35760 9828 ft 256 kts 242°
2026-05-05 02:40 35.51785 -89.37761 9611 ft 266 kts 242°
2026-05-05 02:40 35.50948 -89.39798 9408 ft 267 kts 242°
2026-05-05 02:40 35.50096 -89.41820 9210 ft 265 kts 241°
2026-05-05 02:40 35.49266 -89.43787 9076 ft 253 kts 241°
2026-05-05 02:41 35.48472 -89.45665 8957 ft 245 kts 241°
2026-05-05 02:41 35.47690 -89.47507 8820 ft 242 kts 241°
2026-05-05 02:41 35.46915 -89.49330 8702 ft 241 kts 241°
2026-05-05 02:41 35.46146 -89.51150 8617 ft 241 kts 241°
2026-05-05 02:42 35.45375 -89.52974 8483 ft 240 kts 241°
2026-05-05 02:42 35.44608 -89.54789 8355 ft 239 kts 241°
2026-05-05 02:42 35.43838 -89.56603 8230 ft 239 kts 241°
2026-05-05 02:42 35.43070 -89.58414 8102 ft 239 kts 241°
2026-05-05 02:43 35.42301 -89.60226 7980 ft 239 kts 240°
2026-05-05 02:43 35.41535 -89.62031 7857 ft 239 kts 241°
2026-05-05 02:43 35.40769 -89.63833 7731 ft 238 kts 241°
2026-05-05 02:43 35.40006 -89.65627 7606 ft 237 kts 241°
2026-05-05 02:44 35.39245 -89.67415 7475 ft 235 kts 241°
2026-05-05 02:44 35.38516 -89.69130 7342 ft 220 kts 240°
2026-05-05 02:44 35.37833 -89.70745 7217 ft 210 kts 240°
2026-05-05 02:44 35.37163 -89.72318 7090 ft 207 kts 240°
2026-05-05 02:45 35.36498 -89.73874 6964 ft 206 kts 240°
2026-05-05 02:45 35.35835 -89.75427 6838 ft 205 kts 240°
2026-05-05 02:45 35.35176 -89.76972 6705 ft 204 kts 240°
2026-05-05 02:45 35.34538 -89.78470 6603 ft 189 kts 240°
2026-05-05 02:46 35.33961 -89.79831 6467 ft 172 kts 240°
2026-05-05 02:46 35.33430 -89.81082 6339 ft 159 kts 240°
2026-05-05 02:46 35.32932 -89.82250 6205 ft 151 kts 239°
2026-05-05 02:46 35.32446 -89.83388 6085 ft 151 kts 239°
2026-05-05 02:47 35.31967 -89.84510 5948 ft 149 kts 240°
2026-05-05 02:47 35.31484 -89.85636 5824 ft 149 kts 240°
2026-05-05 02:47 35.31001 -89.86762 5641 ft 150 kts 239°
2026-05-05 02:47 35.30476 -89.87987 5428 ft 171 kts 240°
2026-05-05 02:48 35.29926 -89.89273 5166 ft 175 kts 240°
2026-05-05 02:48 35.29361 -89.90593 4888 ft 175 kts 239°
2026-05-05 02:48 35.28800 -89.91908 4778 ft 173 kts 240°
2026-05-05 02:48 35.28235 -89.93232 4717 ft 174 kts 239°
2026-05-05 02:49 35.27671 -89.94549 4651 ft 175 kts 239°
2026-05-05 02:49 35.27100 -89.95869 4584 ft 174 kts 237°
2026-05-05 02:49 35.26317 -89.96948 4506 ft 173 kts 217°
2026-05-05 02:49 35.25232 -89.97600 4348 ft 176 kts 197°
2026-05-05 02:50 35.24018 -89.97706 4050 ft 176 kts 183°
2026-05-05 02:50 35.22839 -89.97675 3783 ft 161 kts 183°
2026-05-05 02:50 35.21745 -89.97649 3568 ft 155 kts 184°
2026-05-05 02:50 35.20670 -89.97627 3370 ft 154 kts 183°
2026-05-05 02:51 35.19602 -89.97604 3159 ft 154 kts 184°
2026-05-05 02:51 35.18535 -89.97581 2950 ft 154 kts 183°
2026-05-05 02:51 35.17464 -89.97560 2753 ft 153 kts 182°
2026-05-05 02:51 35.16404 -89.97537 2549 ft 153 kts 182°
2026-05-05 02:52 35.15343 -89.97515 2348 ft 152 kts 181°
2026-05-05 02:52 35.14276 -89.97493 2145 ft 153 kts 181°
2026-05-05 02:52 35.13208 -89.97471 1948 ft 152 kts 181°
2026-05-05 02:52 35.12171 -89.97447 1742 ft 147 kts 181°
2026-05-05 02:53 35.11157 -89.97427 1540 ft 146 kts 180°
2026-05-05 02:53 35.10156 -89.97406 1355 ft 145 kts 180°
2026-05-05 02:53 35.09161 -89.97385 1162 ft 139 kts 180°
2026-05-05 02:53 35.08203 -89.97364 977 ft 137 kts 180°
2026-05-05 02:54 35.07254 -89.97345 798 ft 136 kts 179°
2026-05-05 02:54 35.06312 -89.97325 622 ft 136 kts 179°
2026-05-05 02:54 35.05687 -89.97312 504 ft 136 kts 179°
2026-05-05 02:54 35.04741 -89.97294 346 ft 136 kts 179°
2026-05-05 02:55 35.03935 -89.97280 326 ft 78 kts 179°
2026-05-05 02:55 35.03637 -89.97270 331 ft 29 kts 179°
2026-05-05 02:55 35.03439 -89.97267 331 ft 28 kts 184°
2026-05-05 02:55 35.03289 -89.97308 330 ft 20 kts 202°
2026-05-05 02:56 35.03201 -89.97376 329 ft 12 kts 219°
2026-05-05 02:56 35.03163 -89.97451 328 ft 3 kts 266°
2026-05-05 02:56 35.03163 -89.97495 325 ft 10 kts 269°
2026-05-05 02:56 35.03160 -89.97659 325 ft 20 kts 271°
2026-05-05 02:57 35.03178 -89.97706 328 ft 3 kts 313°
2026-05-05 02:57 35.03193 -89.97717 328 ft 4 kts 335°
2026-05-05 02:57 35.03244 -89.97722 328 ft 11 kts
2026-05-05 02:57 35.03346 -89.97724 328 ft 19 kts 359°
2026-05-05 02:58 35.03504 -89.97727 327 ft 27 kts 359°
2026-05-05 02:58 35.03685 -89.97731 328 ft 28 kts 359°
2026-05-05 02:58 35.03849 -89.97735 328 ft 19 kts 359°
2026-05-05 02:58 35.04011 -89.97739 326 ft 27 kts 360°
2026-05-05 02:59 35.04173 -89.97751 327 ft 14 kts 332°
2026-05-05 02:59 35.04193 -89.97835 326 ft 7 kts 269°
2026-05-05 02:59 35.04192 -89.97892 330 ft 6 kts 269°
2026-05-05 02:59 35.04196 -89.97941 327 ft 5 kts 278°
2026-05-05 03:00 35.04210 -89.97968 326 ft 3 kts 332°
2026-05-05 03:00 35.04223 -89.97980 330 ft 1 kts 308°
2026-05-05 03:00 35.04222 -89.98001 330 ft 5 kts 248°
2026-05-05 03:00 35.04204 -89.98027 330 ft 0 kts 227°
2026-05-05 03:01 35.04200 -89.98032 330 ft 2 kts 223°
2026-05-05 03:01 35.04193 -89.98040 331 ft 0 kts 223°